Theta_e
295 295 295 294 293 294 293 294 289 292 293 297 299 300 302 302 303 303 303 303 303 301 300 301 298 297 298 298 299 300 299 298 297 300 297 296 295 295 297 297 296 296 294 293
291 294 294 292 294 294 294 295 295 295 294 301 301 302 301 301 302 301 302 301 299 297 299 297 296 296 296 297 298 299 298 297 296 297 296 296 297 295 294 293 292 292 291 291
288 291 290 288 292 293 294 296 295 291 296 300 299 300 301 301 302 301 300 298 296 298 297 296 296 296 296 297 298 298 296 295 295 294 294 293 293 292 292 291 291 290 290 290
287 288 283 293 298 298 295 296 298 297 298 299 300 301 302 304 301 299 294 293 296 298 297 296 296 296 297 297 296 296 294 294 293 293 292 292 291 291 291 290 290 289 289 288
285 286 290 293 295 294 292 293 299 297 298 300 301 302 301 301 297 294 293 296 299 298 297 296 296 296 295 295 295 295 293 292 292 292 291 290 290 289 289 289 288 288 287 287
286 283 282 292 297 299 298 289 299 300 299 298 297 289 296 294 292 293 295 298 298 297 297 296 296 295 294 293 292 292 292 292 292 291 290 289 289 288 288 288 287 287 285 286
287 285 289 297 297 298 287 290 299 300 299 296 293 293 292 292 293 296 297 297 299 298 296 296 296 294 292 292 291 292 293 292 292 291 290 289 288 288 287 287 286 285 284 283
286 283 282 298 297 291 297 301 301 302 300 295 291 290 291 292 293 294 294 295 296 296 296 296 296 294 292 291 293 293 293 291 291 290 288 287 288 287 287 286 284 284 282 283
292 292 300 302 299 302 304 302 299 293 290 291 289 290 292 293 294 294 295 295 296 295 295 295 296 295 292 292 293 292 291 290 289 288 288 288 287 286 285 284 282 281 281 280
294 297 299 302 304 301 300 295 294 293 293 293 291 292 292 293 293 294 294 293 293 293 293 293 295 295 294 294 292 291 289 289 288 287 286 288 287 286 284 282 281 280 280 279
296 298 300 301 301 296 292 292 292 292 292 292 292 292 291 290 290 291 291 292 292 292 292 293 294 294 294 292 291 289 288 287 287 286 286 286 285 284 283 283 281 280 280 279
292 299 297 295 292 293 290 289 291 291 292 293 291 289 290 289 290 291 291 292 292 292 292 292 292 293 292 291 289 288 286 286 286 286 286 285 284 283 282 280 279 279 278 278
297 300 296 292 292 291 290 291 292 292 292 290 291 291 290 289 290 289 291 291 291 291 291 291 291 291 290 289 287 286 285 285 285 284 284 283 282 281 280 282 279 278 277 277
299 296 290 292 288 292 292 293 293 292 292 291 291 291 291 290 290 290 289 291 291 290 290 288 288 288 289 288 286 284 284 282 284 284 283 282 282 281 281 279 278 280 279 276
291 296 294 293 292 293 292 291 289 289 289 289 290 290 290 289 289 289 290 290 289 290 289 289 287 286 287 286 284 284 284 283 283 283 283 282 282 281 280 279 279 279 279 278
291 292 290 289 288 289 289 289 288 288 288 288 289 288 289 289 289 289 290 290 288 288 288 285 283 285 285 285 284 284 283 282 282 282 282 282 281 280 279 279 279 278 278 277
289 285 286 287 287 287 288 289 288 288 288 288 288 288 287 285 285 286 288 289 288 286 286 284 284 285 283 284 284 284 283 282 282 282 282 281 280 280 279 279 278 278 278 276
290 289 289 288 288 288 288 288 288 288 287 288 286 284 284 284 283 284 285 286 286 285 285 284 284 284 283 284 284 283 282 281 281 281 282 281 281 280 279 278 278 278 278 277
289 288 289 288 289 289 288 288 288 287 285 285 284 284 284 283 284 285 286 285 285 284 285 284 282 283 283 283 283 284 282 282 281 281 281 280 281 280 279 279 278 278 277 277
288 289 289 289 289 287 286 287 286 286 286 286 284 283 284 284 285 284 285 285 285 285 285 284 283 283 283 283 282 282 282 282 281 281 282 281 281 280 280 278 278 278 278 277
287 288 287 286 286 286 285 285 284 284 285 285 283 283 284 284 285 285 285 284 285 284 284 283 284 285 284 284 282 283 283 283 282 282 282 282 281 280 280 279 279 278 278 277
287 287 286 285 285 286 287 287 286 285 284 284 284 284 285 285 285 285 285 283 286 283 285 285 285 283 283 282 284 284 283 282 283 283 282 282 281 280 280 280 279 279 278 277
287 287 287 286 285 286 287 286 285 285 284 284 284 284 285 286 285 283 283 286 287 284 285 286 284 283 283 285 285 284 283 283 283 282 283 283 282 281 280 280 280 279 278 277
288 288 287 288 287 285 285 287 287 286 285 285 286 286 286 285 285 287 287 284 282 284 285 286 284 283 283 285 284 283 283 282 282 282 282 281 282 282 281 280 279 279 278 276
287 287 287 285 285 288 288 288 287 286 284 285 286 287 287 287 284 287 285 286 282 283 285 284 282 283 284 284 284 282 282 281 281 281 281 281 282 282 282 281 280 279 278 278
288 288 288 287 287 288 288 287 285 284 283 284 287 286 287 286 286 286 286 285 285 284 285 286 285 285 284 284 283 282 281 281 280 280 280 280 281 281 281 281 280 279 279 278
288 286 287 288 289 288 287 286 284 284 286 285 285 286 287 286 286 286 285 285 285 285 285 285 284 283 284 283 283 282 281 281 280 279 279 279 279 279 280 280 281 280 279 278
Wind_Speed
8 11 14 12 15 13 17 17 12 17 17 16 16 15 12 5 9 12 13 10 8 9 8 9 10 12 11 11 11 11 12 13 11 8 7 6 8 8 10 10 10 9 10 8
4 7 10 13 16 15 15 16 17 18 19 15 10 9 4 8 12 14 11 8 6 8 8 10 11 11 11 11 10 11 11 10 7 5 5 5 6 7 9 9 10 9 10 10
4 8 14 6 4 2 4 6 8 12 13 10 12 6 9 12 15 14 7 7 8 9 8 10 11 11 11 11 10 11 9 8 7 7 8 7 7 9 10 11 10 10 10 10
3 4 4 4 7 11 14 14 10 12 11 7 8 9 12 15 9 6 7 10 10 7 9 10 11 11 11 11 9 10 9 8 7 8 8 8 9 10 11 9 10 10 10 10
2 3 14 13 3 2 3 14 10 6 5 12 16 19 17 12 8 5 7 10 10 8 9 10 11 11 11 11 10 8 8 7 9 9 9 9 9 10 10 10 10 10 10 11
2 3 6 5 4 3 4 9 6 10 12 20 17 10 8 9 5 6 13 12 9 10 10 11 11 9 10 10 9 8 6 7 8 8 9 10 10 10 8 9 10 8 10 12
6 6 9 8 4 1 4 4 9 15 14 9 10 3 3 6 9 11 10 12 11 11 10 11 10 8 9 10 9 7 8 8 8 8 8 9 9 8 9 9 9 7 8 10
3 5 6 2 4 3 10 14 15 14 8 4 3 2 5 9 11 12 13 14 13 11 13 12 11 9 11 11 10 8 9 8 8 7 6 7 9 8 9 9 9 6 9 9
6 7 9 10 12 12 10 11 5 4 4 2 3 6 9 11 14 14 15 14 13 13 14 13 11 11 12 12 10 8 7 7 7 7 6 7 8 9 8 9 8 8 8 9
8 9 14 12 16 8 7 7 4 4 3 4 8 11 13 13 15 15 15 16 15 16 16 16 13 12 12 10 9 9 7 8 7 7 6 8 7 6 7 7 6 8 8 9
14 15 15 6 5 8 6 4 2 3 4 7 11 14 15 15 16 14 14 15 14 15 14 16 15 13 11 9 8 8 6 6 7 5 6 7 6 6 6 6 6 8 8 9
6 8 4 6 9 8 6 2 2 6 9 11 12 13 15 15 15 15 15 16 14 15 16 17 17 14 11 7 6 7 6 6 4 5 5 5 5 6 4 4 4 7 9 8
6 7 9 10 7 4 2 3 6 10 12 14 14 13 15 16 16 16 16 16 16 17 18 18 16 13 9 6 4 4 5 5 5 5 5 5 5 6 7 3 5 4 3 9
7 10 6 2 4 4 4 8 10 13 12 12 14 15 16 17 18 17 17 15 15 16 15 14 12 10 6 7 4 3 4 3 5 5 4 5 5 6 6 6 7 7 2 4
7 6 7 7 5 5 7 10 12 13 14 15 15 15 17 19 18 18 16 13 14 15 15 14 9 6 5 4 4 3 4 4 4 4 4 4 5 5 5 6 6 7 6 4
7 4 2 2 6 8 11 12 13 15 15 16 16 16 17 17 18 19 17 14 13 14 14 7 5 4 2 3 3 4 3 5 5 5 4 4 5 5 5 5 6 6 6 6
3 0 4 7 9 11 11 12 12 14 16 15 16 15 15 14 14 15 16 14 8 7 6 6 5 3 2 4 3 3 3 4 3 5 3 4 5 4 5 5 6 5 5 4
3 4 7 8 10 11 12 12 12 13 13 16 14 12 12 12 15 16 15 13 8 7 6 4 4 4 3 2 2 2 3 3 4 3 3 3 4 5 4 5 5 5 4 2
5 7 9 9 10 10 11 12 12 13 11 11 12 13 12 12 13 13 13 12 9 8 2 5 5 4 3 2 3 3 3 4 4 3 3 4 4 4 4 4 5 4 4 4
8 9 10 10 9 8 9 10 9 12 12 11 11 11 13 13 12 12 11 11 8 3 4 6 5 3 3 4 3 3 4 4 5 4 4 5 5 5 5 4 4 5 4 3
9 10 7 7 9 8 7 8 8 11 13 10 10 13 13 13 12 12 10 8 3 4 5 6 4 2 3 2 4 2 3 4 4 5 5 5 5 5 5 4 4 4 4 3
9 7 7 8 8 10 8 7 9 11 10 10 10 11 11 12 10 9 3 4 1 5 5 3 3 2 3 3 4 3 4 4 4 4 4 5 5 5 5 4 4 4 3 3
9 9 9 7 8 11 11 9 8 8 9 11 12 12 11 8 7 5 4 1 3 4 4 3 1 4 5 4 4 4 5 5 6 6 6 5 5 5 5 5 4 3 4 3
10 9 10 9 6 8 11 12 9 9 11 12 11 10 8 7 5 4 5 2 1 4 4 3 4 6 5 4 3 3 4 5 5 5 6 7 6 5 5 5 5 4 4 3
7 9 9 7 9 9 11 13 11 9 11 10 10 9 5 5 5 4 4 5 5 6 5 5 6 7 4 4 3 4 4 5 5 6 6 6 6 6 5 4 4 5 4 4
10 8 8 9 9 9 9 9 9 9 9 10 9 6 4 5 5 6 6 7 6 6 5 4 4 4 5 5 4 4 4 5 6 6 7 7 7 7 6 6 5 5 5 4
8 6 7 7 7 8 8 9 8 9 9 8 10 8 6 5 6 7 8 6 6 6 5 4 4 5 5 5 5 4 4 4 5 5 6 7 6 6 6 6 5 5 5 5
Wind_Direction
276 283 281 275 270 262 241 245 257 271 285 304 319 319 312 311 307 322 323 328 314 330 323 326 333 331 332 327 329 331 323 325 333 337 307 349 4 306 319 305 318 319 302 308
284 299 288 288 270 260 260 264 260 270 280 303 324 313 272 299 318 312 310 290 317 291 313 325 328 328 330 328 328 325 328 335 346 353 294 288 308 318 334 325 322 318 313 309
279 336 313 273 318 183 206 259 279 291 313 326 314 285 278 316 310 312 302 324 312 312 331 325 330 328 328 325 326 330 324 330 332 331 329 340 334 331 330 323 318 315 310 311
299 292 278 65 292 278 291 299 298 295 315 338 327 312 305 298 320 350 359 327 305 314 316 328 326 328 325 323 327 324 318 317 315 330 325 326 326 329 323 319 314 313 315 316
259 257 295 295 62 21 300 300 316 326 339 331 326 316 297 41 54 8 294 287 287 305 319 317 318 329 322 314 315 324 312 315 312 314 314 318 322 322 320 318 316 318 321 321
171 256 276 335 29 357 282 284 72 346 326 323 328 303 318 12 18 286 267 294 309 304 298 306 322 321 316 317 322 325 304 301 318 310 307 315 322 319 317 313 314 327 326 317
230 255 272 298 5 260 269 351 321 305 309 293 276 353 28 287 276 283 309 300 299 294 300 309 305 296 295 300 303 314 301 311 305 305 311 318 313 314 314 318 317 332 309 313
186 262 273 105 195 312 311 298 301 316 345 41 44 313 293 297 288 298 302 311 315 301 302 304 293 279 285 291 302 308 303 304 300 308 313 304 312 312 319 316 326 319 316 312
218 247 290 286 277 299 324 322 345 102 110 120 293 298 292 306 305 308 315 319 318 306 303 300 288 281 280 289 303 299 296 294 299 302 299 299 311 316 317 326 326 323 320 320
286 262 285 314 314 41 26 83 73 119 207 264 309 318 312 314 317 316 320 321 317 311 306 306 301 288 280 298 291 286 293 297 295 290 324 311 317 323 319 326 323 320 320 325
278 286 287 283 42 105 95 90 205 239 315 313 312 312 317 314 314 317 315 316 319 314 307 306 307 300 294 291 279 281 288 282 281 292 303 314 321 328 325 327 347 323 329 324
253 343 325 54 88 101 103 218 318 332 329 313 314 316 320 316 318 316 320 316 316 316 317 313 308 301 296 282 271 280 275 273 295 299 309 312 314 322 186 223 319 328 337 333
322 29 81 113 101 180 192 311 318 304 311 312 306 314 316 313 315 316 302 307 316 318 315 312 309 303 305 332 295 257 268 284 283 271 294 312 317 321 319 325 211 227 340 337
96 116 113 167 183 194 263 296 314 315 315 316 314 306 305 310 309 309 309 319 312 310 315 320 309 302 305 293 232 227 242 252 279 294 292 305 316 320 318 326 325 329 40 355
88 78 117 166 209 289 322 322 317 317 321 318 319 313 311 310 307 309 311 300 293 300 307 324 307 290 291 282 251 241 249 283 305 291 285 297 296 317 317 324 320 324 328 353
117 114 119 308 317 325 324 320 317 317 319 319 318 315 311 310 309 308 304 297 284 301 315 308 269 259 243 214 232 253 268 246 269 287 286 289 313 320 319 329 320 332 332 356
200 307 342 330 327 321 314 314 317 316 315 313 312 312 311 306 302 298 304 307 287 271 293 277 255 162 192 232 267 307 294 292 281 280 279 301 314 313 318 321 324 326 338 33
8 337 323 315 313 311 314 316 310 312 306 311 304 303 303 305 305 304 304 304 292 285 281 253 190 168 218 225 303 316 311 315 296 291 290 300 320 312 309 314 319 324 331 21
329 311 308 304 302 310 305 307 310 306 297 297 302 302 303 298 295 299 303 299 291 297 356 161 163 205 196 151 253 283 298 297 293 286 284 299 279 298 297 301 314 321 323 326
307 307 303 302 307 295 299 293 292 300 303 304 298 296 297 301 303 303 297 289 303 326 133 155 181 198 206 181 240 299 304 285 278 284 269 290 294 303 300 277 280 307 312 318
300 301 291 284 286 285 265 272 284 292 300 297 294 293 295 301 299 296 299 315 72 163 169 181 237 266 249 270 251 308 314 289 281 288 297 290 299 293 297 291 288 296 306 301
299 290 267 272 280 290 287 277 280 283 284 296 299 294 298 304 314 318 305 273 29 175 192 234 262 192 289 228 269 274 288 299 299 298 300 296 292 294 299 289 288 289 299 288
285 281 282 276 275 291 297 285 274 272 289 302 308 306 303 304 312 307 315 51 244 194 215 239 210 223 238 253 260 269 282 294 302 306 291 283 294 295 295 291 290 270 275 271
286 290 289 293 281 279 290 312 312 309 301 300 296 291 290 304 292 242 265 267 247 168 250 275 234 237 249 254 258 283 291 296 300 304 298 296 274 280 281 281 281 266 253 234
276 285 286 272 281 293 306 306 305 307 310 305 294 291 294 261 246 292 265 239 224 231 242 238 237 246 256 256 258 277 288 294 310 306 302 300 294 283 274 264 263 263 245 241
285 283 292 296 290 298 302 306 306 309 305 294 291 297 251 252 238 246 239 235 236 237 241 221 214 240 252 243 254 256 265 291 304 303 300 295 295 291 286 274 253 239 235 233
270 259 282 291 298 308 297 299 292 297 295 289 298 300 277 260 249 239 233 232 229 231 237 239 237 243 245 251 261 240 249 280 306 306 298 293 295 296 296 291 263 236 233 220